Vertical_Velocity
-2 3 4 5 6 5 -1 2 1 -2 -8 2 3 0 -4 -0 1 1 1 -1 -1 -1 0 1 1 0 -0 -0 -1 -1 -2 -1 -1 -0 -0 0 0 0 -0 -1 -1 -2 -2 -1 -1 -0 0 0 0 0 0 0 0 1 0 0 0 0 0 -0 -1 -1 -1 -2 -2 -2 -2 -2 -2 -2 -2 -2 -1 -1 -1 -1 -1 -1 -1 -1 -1 -1 -1 -1 -1 -1
-7 -1 4 5 8 6 -2 4 6 2 -8 -1 2 3 -0 -2 -1 1 2 -0 -2 -1 1 1 1 1 0 -1 -1 -1 -2 -1 -0 -0 0 0 1 1 0 -1 -1 -1 -1 -1 -0 -0 0 0 0 0 0 1 1 1 1 0 0 -0 -0 -1 -1 -1 -1 -1 -1 -2 -1 -1 -1 -1 -2 -2 -1 -1 -1 -1 -1 -1 -1 -1 -1 -1 -1 -1 -1 -1
-5 -3 -1 3 5 3 -2 5 8 6 -2 -2 0 3 3 -1 -1 0 2 -1 -2 -1 2 2 1 1 0 0 -0 -1 -3 -1 -0 0 0 0 1 0 0 -0 -1 -1 -0 -0 -0 0 0 0 0 1 1 1 1 1 1 0 -0 -0 -1 -1 -1 -1 -1 -1 -1 -1 -1 -1 -1 -1 -1 -1 -1 -1 -1 -1 -1 -1 -1 -1 -1 -1 -1 -1 -1 -1
0 -3 -6 2 3 -0 -3 5 7 6 4 2 1 2 4 2 -0 -1 1 0 -1 -1 2 3 2 0 -0 1 1 -0 -2 -2 -1 0 1 1 1 0 0 0 -0 -0 -0 -0 0 0 0 0 1 1 1 1 1 1 0 0 -0 -0 -1 -1 -0 -0 -0 -1 -1 -1 -1 -1 -1 -1 -1 -1 -1 -1 -1 -1 -1 -1 -1 -1 -1 -1 -1 -1 -1 -1
2 -3 -8 2 2 -2 -4 4 5 4 5 5 4 2 3 2 1 -0 0 1 1 0 -0 2 2 1 0 1 1 0 -1 -1 -1 0 1 1 1 1 0 0 0 0 0 0 0 0 0 1 1 1 1 1 1 1 0 -0 -0 -0 -0 -0 -0 -0 -0 -0 -0 -0 -0 -1 -1 -1 -1 -1 -1 -1 -1 -1 -1 -1 -1 -1 -1 -1 -1 -1 -1 -1
3 -1 -6 2 1 -2 -2 2 3 3 5 4 4 4 3 1 1 2 1 2 2 1 -1 1 2 2 1 1 1 1 0 -0 -0 0 1 1 1 1 1 1 0 0 0 0 0 0 1 1 1 1 1 1 1 1 0 -0 -0 -0 -0 -0 -0 -0 -0 0 0 -0 -0 -0 -0 -0 -0 -0 -1 -1 -1 -1 -1 -1 -1 -1 -1 -1 -1 -1 -1 -1
2 1 -0 1 -1 -1 4 1 0 2 6 2 2 4 4 2 1 2 2 3 2 1 -1 0 2 3 2 1 1 1 1 1 1 0 0 0 0 0 1 0 0 0 0 0 0 0 1 1 1 1 1 1 1 0 -0 -0 -0 -1 -0 -0 -0 -0 -0 -0 -0 -0 -0 -0 -0 -0 -0 -0 -0 -0 -0 -0 -0 -0 -0 -0 -1 -1 -1 -1 -1 -1
1 -0 5 3 -1 -2 3 2 2 2 4 1 1 3 3 2 2 2 2 3 2 1 1 -0 1 3 4 1 -0 -0 1 2 1 -0 -1 -0 0 0 1 0 0 1 1 0 0 0 1 1 1 1 1 1 0 -0 -0 -1 -1 -1 -1 -1 -1 -1 -1 -0 -0 -0 -0 -0 -0 -0 -0 -0 -0 -0 -0 -0 -0 -0 -0 -0 -1 -1 -1 -1 -1 -1
1 -1 2 5 3 -0 -3 -2 2 5 4 -2 -1 3 5 2 0 1 4 2 0 -0 2 1 2 3 4 2 -1 -3 -2 2 2 1 -1 -1 -0 1 1 0 0 -0 1 1 1 1 1 1 1 1 1 1 1 0 -0 -1 -1 -1 -1 -1 -1 -1 -1 -1 -1 -1 -1 -1 -1 -1 -1 -1 -1 -1 -1 -1 -1 -1 -1 -1 -1 -1 -1 -1 -1 -1
3 2 -0 1 3 4 1 -5 -3 4 9 -1 -4 -0 7 4 1 0 4 1 -1 -1 1 1 3 4 3 1 -0 -2 -4 -2 0 3 3 -0 -0 1 1 1 0 -0 -0 0 1 1 1 1 1 1 1 1 1 -0 -0 -0 -1 -1 -1 -0 -0 -0 -1 -1 -1 -1 -1 -2 -2 -2 -2 -2 -1 -1 -1 -1 -1 -1 -1 -1 -1 -1 -1 -1 -0 -0
1 3 3 -1 -1 2 5 -3 -4 0 8 2 -3 -3 4 5 3 1 1 -1 0 1 -1 -2 2 6 3 -0 -1 -0 -0 -4 -4 -1 3 1 1 1 1 1 1 0 -0 0 1 1 1 0 0 1 1 1 -0 -1 -1 -1 -0 -0 -0 0 0 0 -0 -0 -1 -1 -1 -1 -1 -1 -1 -1 -1 -1 -1 -1 -1 -1 -1 -1 -1 -0 -0 -0 -0 -0
1 2 4 0 -1 -0 2 -2 -2 -0 4 3 -0 -3 -1 2 4 3 -3 -2 2 5 -0 -4 -1 4 5 -0 -3 -2 2 -1 -4 -4 -1 -1 0 1 0 -1 -0 1 1 0 0 1 2 0 -0 1 2 1 -1 -1 -0 -0 0 1 1 1 1 1 1 1 0 0 0 -0 -0 -0 -0 -0 -0 -1 -1 -1 -0 -0 -0 -0 -0 0 0 0 0 0
2 4 4 0 -1 0 2 0 -1 -1 2 3 1 -2 -5 1 5 4 -4 -3 2 6 3 -3 -3 -0 4 1 -3 -4 0 -1 -2 -2 -1 -4 -3 -1 -1 -3 -2 1 2 -0 -1 0 3 1 -1 -0 3 1 -1 -1 1 1 1 2 2 2 2 2 1 1 1 1 1 1 1 1 1 1 0 0 0 0 0 0 0 0 0 0 0 0 0 0
2 4 4 -3 -5 -4 -1 -0 -1 -1 -0 2 1 -2 -5 2 6 5 -0 -2 0 4 7 -2 -4 -1 4 0 -4 -5 -2 -2 -1 1 2 -3 -3 -3 -3 -6 -4 0 4 -1 -4 -3 3 1 -2 -3 1 1 -1 -3 -0 1 1 2 1 1 1 1 1 1 1 1 1 1 1 1 1 1 1 0 1 1 1 1 0 0 0 -0 -0 -0 -0 -0
4 6 4 2 0 -2 -4 -2 -1 -2 -1 4 3 -0 -2 2 5 5 3 -3 -1 3 8 -2 -4 0 5 1 -3 -6 -5 -3 1 3 2 -2 -3 -2 -2 -8 -6 -0 6 0 -5 -6 2 2 -2 -6 -2 -2 -2 -3 -1 -1 -0 0 -0 -1 -1 -1 -1 -0 -0 0 0 0 0 0 0 0 1 1 1 1 1 1 1 0 -0 -0 -1 -1 -1 -1
6 7 3 6 10 11 7 7 4 0 -0 4 4 2 1 -0 1 4 4 -4 -2 3 6 -1 -2 -0 1 1 -0 -3 -8 -6 0 6 9 -1 -4 -2 3 -6 -8 -3 7 3 -4 -7 -1 0 -1 -4 -4 -4 -4 -3 -2 -2 -2 -2 -2 -2 -2 -2 -2 -1 -1 -1 -1 -1 -1 -1 -0 0 1 1 2 2 2 2 1 1 0 -0 -1 -1 -1 -1
5 5 2 9 15 18 18 16 9 3 2 3 2 2 3 -0 0 2 3 -1 0 2 0 2 2 1 -3 -1 -1 -2 -3 -10 -8 2 16 4 -3 -3 4 -4 -8 -5 6 4 -1 -5 -2 -2 -2 -3 -4 -5 -4 -4 -3 -3 -3 -3 -3 -3 -3 -3 -2 -2 -2 -2 -2 -2 -2 -2 -1 -0 1 2 2 3 3 2 2 1 1 1 0 0 -0 -0
4 4 4 9 14 16 17 12 5 1 4 1 -1 -2 2 1 2 2 1 2 3 1 -3 1 3 3 4 -1 -5 -5 6 -8 -13 -6 13 8 2 -2 0 -4 -6 -4 4 2 -1 -3 -1 -2 -2 -2 -4 -5 -4 -3 -4 -4 -4 -3 -3 -3 -3 -3 -3 -3 -3 -3 -3 -3 -2 -2 -1 -0 0 1 2 2 2 2 1 1 1 1 1 1 1 1
2 5 6 8 12 15 13 3 -2 -4 -0 -3 -2 -1 -1 -1 2 4 -1 1 2 2 -2 -0 -0 2 8 1 -5 -4 8 -4 -11 -8 7 8 5 0 -0 -4 -6 -5 4 2 -1 -3 -1 -2 -2 -2 -4 -5 -4 -3 -4 -4 -4 -4 -4 -3 -3 -3 -3 -3 -3 -3 -3 -3 -2 -1 -1 -0 0 1 1 1 1 1 0 0 0 0 1 1 1 1
0 2 4 6 10 12 9 2 -1 -3 -5 -4 -0 2 -1 -1 2 2 -4 -1 -0 -1 -1 1 -1 -1 5 2 -2 -3 4 -2 -7 -7 3 7 5 1 2 -1 -4 -4 4 2 0 -2 -2 -2 -2 -2 -4 -5 -4 -4 -4 -4 -4 -4 -4 -4 -3 -3 -3 -3 -3 -3 -2 -2 -1 -0 0 1 1 1 1 0 0 -0 -1 -1 -1 -1 -0 0 0 1
-0 -2 -1 6 10 11 7 6 4 0 -5 -3 0 2 -0 1 1 -1 -2 1 -1 -3 -1 2 -1 -2 4 3 -1 -2 3 -0 -6 -8 1 6 5 2 3 -0 -2 -1 5 3 1 -1 -2 -2 -2 -1 -3 -5 -4 -3 -3 -4 -4 -4 -4 -4 -4 -4 -4 -3 -3 -2 -1 -1 0 1 2 2 2 2 1 1 0 -0 -1 -1 -1 -1 -1 -1 -1 -0
-1 -3 -2 6 10 10 9 9 6 2 -2 -1 -1 -1 -0 1 -1 -3 -2 2 -1 -3 -1 -0 -1 -0 4 2 -0 -1 3 -1 -5 -5 0 4 4 4 5 -0 -2 0 6 4 2 -1 -1 -1 -2 -2 -2 -3 -3 -3 -3 -4 -4 -4 -4 -4 -4 -4 -4 -4 -3 -2 -1 -0 1 2 2 2 3 2 2 2 1 1 0 -0 -1 -1 -1 -1 -1 -1
-2 -4 -1 3 5 5 7 7 4 1 -1 -1 -3 -3 -0 1 -1 -3 -1 1 -1 -3 -3 -1 -0 1 3 2 -0 -1 0 -1 -3 -4 0 2 3 4 6 1 -1 1 6 6 3 -1 -1 1 -0 -2 -2 -2 -2 -2 -3 -4 -4 -4 -4 -5 -5 -4 -4 -4 -3 -3 -2 -1 0 1 1 2 2 2 2 2 2 1 1 0 -0 -0 -1 -1 -1 -0
-1 -2 1 1 1 1 2 2 1 -1 -1 -3 -4 -4 -2 -0 -1 -1 -0 0 -1 -3 -3 -1 0 1 2 2 0 -2 -2 -1 -2 -4 -2 0 2 4 5 3 1 1 4 6 4 1 0 2 1 -0 -1 -2 -1 -1 -3 -4 -4 -5 -5 -5 -4 -4 -4 -4 -3 -3 -2 -1 -1 -0 0 1 1 1 1 1 1 0 0 -0 -0 -0 -0 -1 -0 0
1 2 2 2 2 1 1 0 -1 -1 -2 -3 -3 -3 -3 -2 -1 -1 -0 -0 -1 -2 -2 1 2 1 1 2 0 -2 -3 -1 -3 -4 -4 -1 1 3 4 3 2 2 4 6 5 3 2 3 3 2 0 -1 -1 -1 -3 -4 -5 -5 -5 -5 -4 -4 -4 -4 -3 -3 -2 -2 -1 -1 -0 0 0 -0 -0 -0 -1 -1 -1 -1 -1 -1 -1 -1 -0 1
3 4 4 3 2 1 0 -1 -1 -2 -2 -2 -2 -2 -2 -1 -1 -0 -0 -1 -2 -2 -1 1 1 1 1 2 1 -1 -2 -3 -4 -5 -3 -2 0 2 3 3 2 2 4 6 7 6 5 5 4 3 1 -1 -1 -2 -3 -4 -5 -6 -5 -5 -4 -4 -4 -3 -3 -3 -2 -1 -1 -0 -0 -0 -1 -1 -1 -1 -2 -2 -2 -3 -3 -3 -3 -2 -1 1
4 4 4 3 2 1 -0 -1 -1 -2 -2 -2 -1 -1 -0 0 1 1 -0 -2 -3 -2 -1 1 0 -0 1 2 1 -1 -2 -4 -6 -6 -4 -2 -0 1 2 2 2 2 4 6 7 8 7 6 5 4 2 -0 -1 -2 -4 -5 -6 -6 -6 -5 -4 -4 -3 -3 -3 -2 -1 -1 -0 -0 -1 -1 -1 -2 -2 -2 -3 -3 -3 -4 -4 -4 -4 -3 -1 -0
5 5 4 3 2 2 1 -0 -1 -1 -1 -2 -1 -1 -0 1 2 1 -1 -2 -2 -2 -1 0 -0 -1 0 1 1 -0 -1 -4 -8 -9 -5 -2 -0 0 1 1 1 2 3 5 7 10 11 8 6 4 3 1 -0 -2 -4 -6 -6 -6 -6 -4 -4 -3 -3 -3 -3 -2 -1 -1 -0 -1 -1 -1 -2 -2 -3 -3 -3 -3 -4 -4 -5 -5 -4 -3 -2 -1
7 5 5 4 3 2 1 0 -1 -1 -1 -2 -2 -1 -0 1 2 1 -1 -1 -1 -1 -1 -1 -1 -1 -0 1 2 2 1 -4 -9 -9 -5 -1 -0 -0 2 2 1 1 2 4 7 10 13 9 7 5 3 1 -0 -2 -5 -6 -6 -5 -4 -3 -3 -2 -3 -3 -3 -2 -1 -1 -1 -1 -2 -2 -3 -3 -3 -3 -3 -3 -4 -4 -5 -5 -5 -3 -2 -2
9 7 6 4 3 1 0 -0 -1 -1 -1 -1 -2 -1 -1 0 1 0 -1 0 0 -0 -1 -2 -2 -2 -1 0 2 3 1 -6 -9 -9 -3 1 1 -0 2 2 1 -1 0 3 6 10 13 11 9 5 3 1 -1 -3 -5 -5 -5 -4 -3 -2 -2 -2 -3 -4 -3 -2 -2 -2 -2 -3 -3 -3 -3 -3 -3 -3 -3 -4 -4 -5 -5 -6 -5 -4 -3 -2
7 6 4 2 1 0 0 0 0 -0 -1 -1 -1 -1 -1 -0 -0 0 -0 0 0 0 -0 -1 -1 -2 -1 1 3 3 1 -7 -10 -9 -1 3 2 1 3 3 0 -2 -2 2 5 9 11 13 12 9 5 2 0 -1 -2 -2 -2 -2 -1 -1 -1 -2 -4 -4 -4 -3 -3 -3 -3 -3 -4 -4 -4 -4 -4 -4 -4 -4 -4 -5 -6 -6 -6 -5 -4 -3
2 2 1 0 -0 0 1 0 0 -0 -1 -1 -1 -1 -1 -1 -0 -0 -0 -0 0 0 0 -0 -1 -1 -1 1 3 3 1 -5 -9 -8 -0 4 4 3 4 4 1 -2 -3 0 4 7 9 12 13 13 11 9 5 3 1 -0 -1 -2 -2 -1 -2 -3 -5 -4 -4 -3 -3 -3 -3 -3 -4 -4 -4 -4 -4 -4 -4 -4 -4 -5 -5 -6 -6 -6 -5 -4
-0 -0 -0 -0 -0 0 0 0 -0 -0 -1 -1 -1 -1 -1 -1 -1 -1 -1 -1 -0 0 0 -0 -1 -1 -1 -0 1 2 0 -4 -7 -6 0 4 4 3 3 4 2 -0 -2 -1 1 3 6 8 10 13 15 14 12 8 3 -0 -2 -3 -3 -2 -3 -4 -4 -3 -3 -3 -3 -2 -2 -2 -3 -3 -3 -3 -3 -3 -3 -3 -3 -4 -5 -6 -6 -7 -7 -6
-1 -1 -1 -0 -0 -0 -0 0 0 0 -0 -0 -0 -0 -1 -1 -1 -1 -1 -1 -0 -0 0 0 -0 -0 -1 -0 0 -0 -2 -5 -6 -4 1 4 4 3 3 3 2 0 -0 -1 -1 0 2 4 7 10 12 13 13 10 5 1 -2 -3 -3 -2 -2 -2 -3 -2 -2 -2 -2 -1 -0 -1 -1 -1 -1 -1 -1 -1 -2 -2 -2 -3 -4 -5 -7 -7 -8 -8
-1 -1 -1 -1 -1 -0 -0 0 0 1 1 0 0 -0 -0 -0 -1 -1 -1 -1 -1 -1 -0 0 1 1 1 1 1 -0 -3 -6 -6 -3 1 3 3 2 3 2 1 1 1 -1 -0 1 1 1 3 6 8 10 11 10 7 4 1 -0 -1 -1 -1 -0 -1 -0 -0 -0 -0 1 1 1 1 1 1 1 1 1 0 -0 -0 -1 -2 -4 -6 -6 -7 -7
-0 -0 -1 -1 -0 0 1 1 1 1 1 0 0 0 1 1 -0 -0 -1 -1 -0 0 1 1 1 1 2 2 2 1 -2 -4 -4 -3 -1 1 2 3 3 0 0 1 2 -1 -0 1 2 2 2 4 6 7 8 8 8 6 5 3 -0 -1 -0 1 1 0 1 1 1 2 2 2 2 2 2 2 2 2 2 2 1 1 -0 -1 -3 -4 -5 -5
1 0 -0 -0 1 1 1 1 1 1 0 0 0 1 1 1 0 -1 -1 -0 0 1 2 1 1 0 0 1 2 1 -0 -2 -2 -2 -2 -1 1 2 3 -0 -0 1 2 0 -0 0 2 2 2 2 4 5 6 7 7 6 6 5 1 1 2 2 1 1 1 1 2 2 2 3 3 3 3 3 3 3 3 3 3 3 2 1 -0 -1 -1 -2
0 0 -0 -0 1 1 2 1 0 -0 0 1 1 0 0 -0 -0 -1 -0 0 1 2 2 1 0 -0 -1 -1 -0 -0 -0 -1 -1 -2 -2 -2 -0 1 2 0 -1 -0 1 1 1 1 1 2 2 2 2 3 5 6 6 6 5 4 2 4 5 6 4 2 2 2 2 2 2 3 3 2 2 2 2 3 3 3 3 3 3 3 2 1 1 1
-1 -1 -1 -1 -0 1 1 1 -0 -1 -0 0 -0 -0 -1 -1 -1 -0 0 1 1 1 1 1 -0 -1 -2 -2 -1 -1 -0 0 -0 -1 -1 -2 -1 1 2 1 0 -0 -0 1 1 1 1 1 1 2 2 2 3 4 5 5 3 2 1 4 6 7 6 4 3 1 1 1 2 2 2 2 2 2 2 3 3 4 4 4 5 5 4 3 2 2
-1 -1 -2 -2 -1 -0 1 0 -0 -1 -0 -1 -1 -1 -1 -0 -0 0 0 1 1 1 0 1 0 0 -1 -1 -1 -1 -1 -0 -0 -1 -1 -1 -1 0 2 2 2 1 0 1 1 1 1 -0 -0 -0 1 2 3 4 6 4 1 -0 1 4 6 7 8 7 4 1 0 1 2 1 1 2 2 2 2 3 4 4 4 5 5 5 5 4 3 2
-1 -1 -2 -2 -2 -1 0 -0 -0 -0 -0 -1 -1 -1 -0 1 1 0 -1 -1 -1 -0 -0 1 1 -0 -1 -2 -2 -2 -2 -1 -1 -1 -1 -1 -1 -0 1 2 2 3 3 2 1 1 1 1 -0 -1 -1 0 1 3 5 4 1 -1 -1 1 3 5 9 9 6 2 1 1 2 2 1 1 2 3 3 4 4 4 4 4 4 4 3 3 2 3
-0 -1 -2 -2 -2 -2 -2 -1 -0 -0 0 1 1 0 -0 0 0 -1 -1 -2 -2 -2 -1 0 0 -1 -2 -3 -4 -3 -2 -1 -1 -0 -0 -1 -0 0 1 2 2 3 4 3 2 2 1 2 1 -0 -2 -1 0 1 1 1 -0 -1 -2 -3 -1 1 6 7 6 4 2 1 1 1 1 1 1 2 3 4 4 3 3 3 3 2 2 1 0 0
-1 -2 -2 -2 -2 -2 -1 -0 -0 0 1 1 0 -1 -2 -1 -1 -1 -1 -2 -3 -3 -2 -1 -0 0 -1 -3 -4 -4 -3 -2 -1 -0 -0 -0 0 1 1 1 2 2 4 4 3 2 1 2 2 -0 -3 -2 -1 -0 -1 -1 -2 -2 -3 -4 -3 -0 2 3 4 5 4 3 2 1 0 -0 -0 1 2 3 2 2 2 2 2 2 2 1 0 -0
-2 -2 -2 -1 -1 -0 1 0 0 0 1 0 -1 -2 -3 -1 -1 -0 -0 -1 -2 -2 -1 -1 -1 -0 -0 -2 -3 -4 -4 -4 -3 -1 -1 -0 0 1 1 0 0 1 3 4 3 2 1 1 -0 -1 -3 -3 -3 -4 -4 -3 -2 -2 -2 -3 -2 -1 1 2 3 4 4 3 3 1 -1 -2 -2 -1 -0 1 1 1 2 2 2 2 2 2 1 0
-1 -1 -0 0 1 1 1 -0 -0 0 0 -1 -2 -2 -2 -1 0 1 0 -0 -1 -1 -1 -1 -1 -1 -2 -2 -2 -2 -3 -4 -4 -4 -3 -2 -1 -0 0 0 -0 -0 1 2 2 3 3 1 -1 -3 -3 -3 -3 -4 -5 -5 -4 -3 -1 -1 -1 -1 -1 -0 0 1 1 1 2 1 -1 -3 -4 -3 -3 -1 0 2 2 2 2 2 3 2 2 1
1 1 1 1 1 1 0 -0 -0 -0 -1 -1 -2 -1 -1 -0 0 0 0 -0 -1 -2 -2 -1 -0 -0 -2 -2 -2 -1 -1 -3 -4 -4 -5 -4 -4 -3 -1 -1 0 0 1 -0 -0 0 1 1 0 -1 -3 -3 -3 -3 -3 -4 -4 -4 -3 -2 -1 -1 -1 -1 -2 -2 -3 -2 -1 -1 -2 -3 -4 -4 -4 -3 -0 2 4 4 4 4 4 3 2 1
1 1 0 0 0 -0 -1 -1 -1 -1 -1 -1 -2 -1 -1 -0 -0 -0 -1 -1 -1 -1 -1 -1 -0 0 -1 -1 -1 -0 -1 -2 -3 -4 -4 -4 -4 -3 -3 -2 -2 -1 0 -0 -1 -1 -1 -1 -1 -2 -2 -3 -3 -3 -3 -4 -5 -5 -5 -4 -3 -1 -1 -1 -2 -3 -3 -3 -3 -3 -4 -4 -5 -6 -6 -4 -1 2 4 5 6 5 4 3 1 1
1 0 -1 -1 -1 -1 -1 -1 -0 -0 -1 -1 -2 -1 -1 -1 -0 -0 -1 -1 -0 0 0 -0 -0 -0 -1 -1 -1 -0 1 -0 -1 -2 -2 -2 -3 -3 -3 -3 -3 -2 -2 -1 -1 -1 -1 -1 -1 -2 -4 -4 -4 -4 -3 -4 -6 -7 -7 -6 -5 -4 -3 -1 -1 -2 -3 -3 -3 -3 -3 -4 -6 -7 -8 -6 -3 1 5 7 8 7 5 2 0 -0
-0 -1 -1 -1 -1 -1 -1 -1 -0 -0 -1 -1 -2 -2 -1 -0 0 1 0 0 0 1 0 -0 -1 -1 -1 -2 -2 -1 0 1 0 -0 -0 -0 -1 -1 -1 -2 -2 -2 -2 -2 -2 -2 -1 -1 -1 -1 -3 -5 -5 -5 -5 -5 -6 -7 -7 -7 -6 -5 -4 -2 -2 -1 -2 -2 -2 -2 -3 -4 -5 -7 -8 -7 -5 -1 5 9 11 11 8 3 0 -1
-1 -1 -1 -1 -1 -1 -1 -1 -1 -1 -1 -1 -1 -1 -1 -0 0 1 1 1 0 -0 -0 -1 -1 -1 -1 -2 -1 -1 -0 -0 -1 -1 -1 -1 -0 -0 -1 -1 -1 -1 -1 -1 -1 -1 -1 -0 -0 -2 -4 -6 -6 -5 -6 -8 -8 -7 -6 -6 -6 -5 -4 -3 -2 -1 -1 -1 -1 -2 -2 -3 -5 -6 -7 -8 -7 -4 2 8 11 12 10 4 1 -1
-2 -2 -1 -1 -1 -1 -1 -1 -1 -1 -1 -1 -0 -0 -0 -0 -0 -0 0 0 -0 -1 -1 -1 -0 0 -0 -0 -1 -1 -1 -1 -1 -1 -2 -2 -1 -1 -1 -1 -1 0 0 0 1 1 1 3 3 2 -2 -7 -8 -7 -6 -9 -9 -8 -5 -4 -3 -3 -4 -3 -2 -1 -0 -0 -0 -1 -1 -2 -4 -5 -6 -7 -8 -7 -2 4 9 12 11 6 2 -0
Height
5693 5691 5690 5690 5690 5689 5688 5687 5688 5688 5688 5687 5687 5687 5687 5686 5685 5684 5684 5683 5683 5682 5682 5681 5681 5680 5680 5679 5678 5677 5677 5676 5676 5675 5674 5674 5673 5672 5671 5670 5669 5668 5667 5666 5665 5664 5662 5662 5660 5659 5658 5657 5656 5654 5653 5652 5651 5649 5648 5647 5646 5645 5644 5643 5642 5641 5640 5639 5637 5637 5636 5634 5633 5632 5631 5630 5628 5627 5626 5625 5624 5623 5622 5621 5620 5618
5687 5686 5684 5684 5685 5685 5683 5682 5682 5683 5683 5682 5682 5681 5681 5681 5680 5679 5678 5678 5678 5677 5677 5676 5675 5675 5674 5673 5672 5672 5671 5671 5670 5670 5669 5668 5667 5666 5665 5664 5663 5662 5661 5660 5659 5658 5657 5656 5655 5654 5652 5651 5650 5649 5648 5647 5645 5644 5643 5642 5640 5639 5638 5637 5636 5635 5634 5633 5632 5631 5630 5629 5628 5627 5625 5624 5623 5622 5621 5619 5618 5617 5616 5615 5614 5613
5682 5681 5680 5679 5679 5680 5679 5678 5677 5678 5678 5678 5677 5676 5676 5676 5675 5674 5673 5673 5672 5672 5672 5671 5670 5669 5668 5667 5667 5666 5666 5665 5665 5664 5663 5663 5662 5661 5660 5658 5657 5657 5656 5655 5654 5652 5652 5650 5649 5648 5647 5646 5645 5643 5642 5641 5640 5638 5637 5636 5635 5634 5633 5632 5631 5630 5629 5627 5627 5625 5624 5623 5622 5621 5620 5618 5617 5616 5615 5614 5612 5612 5610 5609 5608 5607
5676 5676 5675 5674 5674 5674 5674 5673 5673 5673 5673 5672 5672 5671 5670 5670 5669 5669 5668 5668 5667 5667 5666 5665 5665 5664 5663 5662 5661 5660 5660 5660 5659 5659 5658 5657 5656 5655 5654 5653 5652 5651 5650 5649 5648 5647 5646 5645 5644 5643 5642 5640 5639 5638 5637 5636 5634 5633 5632 5631 5630 5628 5627 5626 5625 5624 5623 5622 5621 5620 5618 5617 5616 5615 5614 5612 5611 5610 5609 5608 5607 5606 5605 5603 5602 5601
5670 5671 5670 5669 5669 5669 5668 5668 5668 5667 5667 5667 5666 5666 5665 5665 5664 5663 5662 5662 5662 5662 5661 5660 5659 5658 5657 5656 5655 5655 5654 5654 5654 5653 5652 5652 5651 5650 5648 5647 5647 5645 5644 5643 5642 5642 5641 5639 5638 5637 5636 5635 5634 5632 5631 5630 5629 5628 5627 5625 5624 5623 5622 5621 5620 5619 5618 5617 5615 5614 5613 5612 5610 5609 5608 5607 5605 5604 5603 5602 5601 5600 5599 5598 5597 5596
5664 5665 5664 5664 5663 5662 5662 5662 5662 5662 5662 5661 5660 5660 5660 5659 5658 5658 5657 5657 5656 5656 5655 5654 5654 5653 5652 5651 5650 5649 5649 5649 5648 5647 5647 5646 5645 5644 5643 5642 5641 5640 5639 5638 5637 5636 5635 5634 5633 5632 5631 5629 5628 5627 5626 5625 5623 5622 5621 5620 5619 5618 5617 5616 5615 5613 5612 5611 5610 5608 5607 5606 5605 5603 5602 5601 5600 5598 5597 5596 5595 5594 5593 5592 5591 5590
5659 5659 5659 5659 5658 5657 5657 5657 5657 5657 5656 5656 5655 5654 5654 5653 5653 5653 5652 5651 5651 5650 5649 5649 5648 5647 5647 5646 5645 5644 5643 5643 5642 5642 5641 5640 5639 5638 5637 5637 5635 5634 5633 5632 5632 5631 5629 5628 5627 5626 5625 5624 5623 5622 5620 5619 5618 5617 5616 5615 5614 5612 5612 5610 5609 5608 5607 5605 5604 5603 5602 5600 5599 5597 5596 5595 5594 5593 5592 5590 5589 5588 5587 5586 5585 5584
5653 5653 5653 5653 5653 5652 5652 5651 5651 5651 5651 5651 5650 5649 5648 5648 5648 5647 5647 5646 5645 5644 5644 5643 5642 5642 5641 5640 5639 5639 5638 5637 5637 5636 5635 5634 5634 5633 5632 5631 5630 5629 5628 5627 5626 5625 5624 5623 5622 5621 5620 5618 5617 5616 5615 5614 5613 5612 5611 5609 5608 5607 5606 5605 5603 5602 5601 5600 5598 5597 5596 5594 5593 5592 5591 5589 5588 5587 5586 5585 5583 5582 5581 5580 5579 5578
5648 5647 5647 5647 5647 5647 5647 5646 5645 5645 5646 5646 5645 5643 5643 5643 5642 5642 5641 5640 5639 5639 5638 5638 5637 5636 5634 5633 5633 5633 5632 5632 5631 5630 5629 5629 5628 5627 5626 5625 5625 5623 5622 5622 5621 5620 5618 5617 5617 5615 5614 5613 5612 5611 5609 5608 5607 5606 5605 5604 5602 5601 5600 5599 5597 5596 5595 5594 5592 5591 5590 5589 5587 5586 5585 5584 5582 5581 5580 5579 5577 5577 5575 5574 5573 5572
5642 5642 5642 5642 5641 5642 5642 5641 5640 5639 5639 5640 5639 5638 5637 5637 5637 5636 5635 5634 5633 5633 5633 5633 5632 5630 5628 5627 5627 5627 5627 5626 5625 5625 5624 5623 5622 5622 5621 5620 5619 5618 5617 5616 5615 5614 5613 5612 5611 5610 5609 5607 5606 5605 5604 5603 5602 5601 5600 5598 5597 5596 5594 5593 5592 5591 5589 5588 5587 5586 5584 5583 5582 5580 5579 5578 5577 5575 5574 5573 5572 5571 5569 5568 5567 5566
5637 5637 5636 5636 5635 5635 5636 5636 5635 5633 5633 5634 5634 5633 5632 5632 5632 5631 5630 5628 5627 5627 5627 5628 5627 5625 5623 5622 5621 5621 5621 5621 5620 5619 5618 5618 5617 5616 5615 5614 5613 5613 5612 5611 5610 5608 5607 5607 5606 5604 5603 5602 5601 5600 5599 5597 5597 5595 5594 5593 5592 5590 5589 5587 5586 5585 5584 5582 5581 5580 5578 5577 5576 5575 5573 5572 5571 5569 5568 5567 5566 5565 5564 5563 5562 5561
5631 5631 5631 5631 5630 5629 5630 5629 5629 5628 5628 5628 5628 5627 5626 5626 5626 5626 5626 5623 5622 5621 5622 5622 5621 5620 5618 5617 5616 5615 5615 5615 5615 5614 5613 5612 5612 5611 5610 5609 5608 5607 5607 5606 5604 5603 5602 5601 5600 5599 5597 5596 5595 5594 5593 5592 5591 5590 5589 5587 5586 5585 5583 5582 5581 5580 5578 5577 5576 5574 5573 5572 5570 5569 5567 5566 5565 5564 5562 5561 5560 5559 5558 5557 5556 5555
5626 5626 5626 5625 5624 5624 5624 5624 5623 5623 5623 5622 5622 5622 5621 5620 5620 5621 5621 5619 5617 5616 5616 5616 5615 5614 5612 5612 5612 5611 5610 5610 5609 5608 5608 5607 5605 5604 5604 5604 5603 5602 5601 5600 5598 5597 5596 5595 5594 5593 5591 5590 5589 5589 5588 5587 5586 5585 5583 5582 5581 5579 5578 5577 5576 5574 5573 5572 5570 5569 5567 5566 5565 5563 5562 5561 5559 5558 5557 5556 5555 5554 5553 5552 5551 5550
5621 5621 5621 5619 5618 5617 5618 5618 5618 5617 5617 5616 5616 5617 5616 5616 5615 5615 5615 5614 5612 5611 5611 5612 5611 5608 5606 5606 5606 5606 5606 5605 5604 5603 5602 5601 5599 5598 5599 5599 5597 5596 5595 5594 5593 5591 5589 5589 5588 5587 5585 5584 5583 5583 5582 5581 5580 5579 5578 5577 5575 5574 5573 5572 5570 5569 5568 5566 5565 5563 5562 5561 5559 5558 5557 5555 5554 5552 5551 5550 5549 5548 5547 5546 5545 5544
5616 5617 5617 5616 5614 5612 5612 5612 5612 5612 5611 5611 5611 5612 5612 5611 5610 5610 5610 5609 5608 5607 5607 5607 5606 5603 5601 5600 5600 5601 5602 5601 5600 5599 5598 5596 5593 5592 5593 5594 5592 5590 5589 5588 5587 5585 5583 5582 5582 5581 5579 5578 5577 5577 5577 5576 5574 5573 5572 5571 5570 5568 5567 5566 5565 5563 5562 5561 5559 5558 5557 5555 5554 5552 5551 5550 5548 5547 5546 5545 5544 5543 5542 5541 5540 5539
5611 5612 5614 5613 5611 5608 5607 5607 5607 5606 5606 5605 5606 5607 5607 5606 5606 5605 5605 5604 5603 5602 5602 5602 5601 5599 5597 5595 5595 5596 5597 5597 5596 5595 5594 5592 5588 5586 5587 5588 5588 5585 5583 5582 5581 5579 5577 5576 5575 5574 5573 5572 5572 5571 5570 5570 5568 5567 5566 5565 5564 5563 5562 5560 5559 5558 5557 5555 5554 5552 5551 5550 5548 5547 5546 5544 5543 5542 5541 5539 5538 5537 5537 5536 5535 5534
5607 5607 5608 5609 5607 5605 5603 5602 5602 5602 5601 5601 5601 5602 5602 5602 5601 5600 5600 5600 5599 5598 5597 5597 5596 5595 5593 5591 5589 5590 5592 5593 5592 5590 5589 5588 5584 5581 5580 5582 5583 5581 5577 5576 5575 5574 5572 5571 5569 5568 5567 5567 5566 5565 5564 5563 5562 5561 5560 5559 5558 5557 5556 5555 5553 5552 5551 5549 5548 5547 5546 5544 5543 5542 5540 5539 5537 5536 5535 5534 5533 5532 5531 5530 5529 5528
5602 5602 5604 5605 5603 5601 5598 5597 5597 5597 5597 5597 5597 5597 5597 5597 5597 5596 5596 5595 5594 5593 5593 5592 5592 5591 5590 5587 5584 5583 5585 5587 5587 5586 5584 5583 5580 5576 5575 5576 5577 5576 5573 5571 5569 5568 5567 5565 5564 5562 5562 5561 5560 5559 5558 5558 5557 5556 5554 5553 5552 5551 5550 5549 5547 5546 5545 5544 5542 5541 5540 5538 5537 5536 5535 5533 5532 5531 5530 5529 5528 5527 5526 5525 5524 5523
5596 5597 5599 5600 5599 5596 5594 5593 5592 5592 5593 5593 5593 5593 5593 5592 5592 5592 5591 5590 5590 5589 5589 5588 5587 5587 5586 5584 5581 5578 5579 5581 5582 5581 5580 5579 5576 5572 5570 5571 5572 5570 5568 5566 5564 5562 5562 5560 5558 5557 5556 5555 5554 5553 5553 5552 5551 5550 5549 5547 5547 5545 5544 5543 5542 5540 5539 5538 5537 5535 5534 5533 5532 5530 5529 5528 5527 5525 5524 5523 5522 5521 5520 5519 5518 5517
5592 5592 5594 5594 5593 5592 5589 5588 5587 5588 5589 5589 5589 5588 5588 5587 5587 5587 5586 5586 5585 5585 5585 5584 5583 5582 5581 5580 5577 5575 5574 5575 5577 5576 5575 5574 5572 5568 5566 5566 5567 5566 5563 5560 5559 5557 5557 5555 5553 5552 5551 5550 5549 5548 5547 5546 5545 5544 5543 5542 5541 5540 5538 5537 5536 5535 5533 5532 5531 5530 5528 5527 5526 5525 5523 5522 5521 5520 5518 5517 5517 5515 5515 5514 5513 5512
5587 5588 5588 5589 5589 5587 5585 5583 5583 5583 5584 5584 5584 5584 5583 5583 5582 5582 5581 5581 5581 5580 5580 5579 5578 5577 5576 5575 5573 5570 5569 5570 5571 5571 5570 5569 5568 5565 5562 5562 5562 5561 5558 5556 5554 5553 5552 5550 5548 5546 5545 5544 5543 5542 5541 5540 5539 5538 5537 5536 5535 5534 5533 5532 5530 5529 5528 5527 5526 5524 5523 5522 5521 5519 5518 5517 5515 5514 5513 5512 5511 5510 5509 5508 5507 5506
5583 5583 5583 5584 5584 5583 5581 5579 5578 5579 5579 5580 5580 5579 5579 5578 5578 5577 5576 5576 5576 5575 5574 5574 5573 5572 5571 5570 5568 5565 5564 5565 5566 5566 5565 5565 5563 5560 5557 5557 5558 5557 5554 5552 5549 5548 5547 5545 5543 5541 5540 5539 5538 5537 5535 5534 5533 5532 5531 5530 5529 5528 5527 5526 5525 5523 5522 5521 5520 5519 5517 5516 5515 5514 5512 5511 5510 5509 5508 5507 5506 5505 5503 5502 5502 5501
5578 5578 5578 5579 5579 5578 5576 5575 5574 5574 5574 5575 5575 5575 5574 5574 5573 5573 5572 5571 5571 5570 5569 5569 5568 5567 5566 5565 5563 5561 5560 5560 5560 5561 5560 5560 5558 5556 5554 5553 5553 5552 5550 5547 5545 5544 5542 5540 5538 5536 5535 5534 5532 5531 5530 5529 5528 5527 5526 5525 5523 5522 5521 5520 5519 5518 5517 5516 5514 5513 5512 5511 5509 5508 5507 5506 5504 5503 5502 5501 5500 5499 5498 5497 5496 5495
5573 5573 5573 5574 5573 5573 5572 5571 5570 5570 5570 5571 5571 5570 5570 5569 5569 5568 5567 5566 5566 5565 5564 5564 5563 5562 5561 5560 5558 5557 5555 5555 5555 5556 5555 5555 5554 5552 5550 5549 5549 5548 5546 5543 5541 5540 5537 5535 5532 5531 5530 5529 5527 5526 5525 5524 5522 5522 5521 5519 5518 5517 5516 5514 5513 5512 5511 5510 5509 5507 5506 5505 5504 5502 5501 5500 5499 5497 5497 5495 5494 5493 5492 5491 5490 5489
5569 5568 5568 5568 5568 5568 5568 5568 5567 5567 5567 5566 5566 5566 5565 5565 5564 5563 5562 5561 5561 5560 5560 5560 5559 5558 5556 5555 5554 5552 5550 5550 5551 5551 5550 5550 5549 5548 5546 5545 5545 5544 5541 5539 5537 5535 5533 5531 5528 5526 5525 5524 5522 5521 5520 5518 5517 5516 5515 5514 5513 5512 5510 5509 5508 5507 5506 5504 5503 5502 5501 5499 5498 5497 5495 5494 5493 5492 5491 5489 5488 5487 5486 5485 5484 5483
5564 5564 5563 5563 5564 5564 5564 5564 5564 5563 5563 5562 5562 5562 5561 5561 5560 5559 5558 5557 5557 5557 5556 5555 5554 5553 5552 5551 5550 5548 5546 5546 5546 5546 5546 5545 5544 5543 5542 5541 5540 5539 5537 5535 5533 5531 5529 5527 5524 5522 5521 5519 5518 5517 5515 5514 5512 5511 5510 5509 5507 5506 5505 5504 5502 5501 5500 5499 5498 5497 5495 5494 5492 5491 5490 5488 5487 5486 5484 5483 5482 5481 5479 5478 5477 5476
5559 5559 5559 5559 5560 5560 5560 5560 5559 5559 5559 5559 5558 5558 5557 5557 5556 5555 5554 5553 5553 5552 5552 5551 5550 5549 5548 5547 5546 5544 5542 5541 5541 5541 5541 5541 5540 5538 5537 5537 5536 5534 5533 5531 5529 5527 5525 5522 5520 5518 5517 5515 5513 5512 5510 5509 5507 5506 5505 5504 5502 5501 5500 5498 5497 5496 5495 5494 5492 5491 5490 5488 5487 5486 5484 5483 5481 5480 5478 5477 5476 5474 5473 5472 5471 5470
5554 5555 5555 5556 5556 5556 5556 5556 5556 5555 5555 5554 5554 5554 5553 5553 5552 5551 5550 5549 5549 5549 5547 5547 5546 5545 5544 5543 5542 5540 5538 5537 5536 5536 5536 5536 5535 5533 5532 5532 5530 5529 5528 5527 5526 5524 5522 5519 5517 5515 5513 5511 5509 5507 5506 5504 5503 5502 5500 5499 5498 5496 5495 5493 5492 5491 5490 5489 5487 5486 5485 5483 5482 5480 5478 5477 5475 5474 5472 5470 5469 5468 5467 5466 5464 5463
5551 5552 5552 5552 5552 5552 5552 5552 5552 5552 5551 5551 5550 5550 5549 5549 5548 5547 5546 5546 5545 5545 5543 5542 5542 5541 5540 5539 5537 5536 5534 5532 5531 5531 5532 5531 5530 5528 5528 5527 5525 5524 5524 5522 5522 5520 5519 5516 5513 5511 5509 5507 5505 5503 5502 5500 5499 5497 5496 5494 5493 5492 5490 5489 5487 5486 5485 5484 5482 5481 5479 5478 5476 5474 5473 5471 5469 5467 5466 5464 5462 5461 5460 5459 5458 5457
5549 5549 5549 5549 5549 5549 5549 5549 5548 5548 5547 5547 5547 5546 5546 5545 5544 5543 5542 5542 5542 5541 5539 5538 5537 5537 5536 5535 5533 5532 5530 5528 5527 5527 5527 5526 5525 5524 5523 5522 5520 5519 5519 5518 5517 5517 5516 5513 5510 5508 5505 5503 5502 5499 5497 5496 5494 5493 5492 5490 5488 5487 5485 5484 5483 5482 5480 5479 5477 5476 5474 5472 5471 5469 5467 5465 5463 5462 5460 5458 5457 5455 5454 5452 5452 5450
5546 5546 5546 5546 5546 5546 5546 5545 5545 5545 5544 5544 5543 5542 5542 5541 5541 5540 5539 5538 5538 5537 5536 5534 5533 5532 5532 5531 5529 5528 5526 5524 5523 5522 5523 5522 5520 5519 5519 5517 5516 5515 5514 5513 5512 5512 5512 5511 5508 5505 5502 5500 5498 5496 5494 5492 5490 5489 5487 5486 5484 5482 5481 5479 5478 5477 5475 5474 5472 5470 5468 5467 5465 5463 5462 5460 5458 5456 5454 5452 5450 5449 5447 5446 5445 5444
5542 5543 5543 5543 5543 5543 5542 5542 5542 5541 5541 5540 5539 5539 5538 5538 5537 5536 5536 5535 5534 5533 5532 5531 5529 5528 5527 5526 5525 5523 5522 5520 5518 5518 5518 5517 5516 5515 5515 5513 5512 5510 5509 5509 5508 5507 5506 5506 5506 5503 5500 5497 5494 5492 5490 5488 5486 5484 5483 5481 5480 5478 5476 5475 5473 5472 5471 5469 5467 5465 5463 5462 5460 5458 5456 5454 5452 5450 5448 5446 5444 5442 5441 5439 5438 5437
5539 5540 5540 5540 5540 5539 5539 5539 5538 5538 5537 5537 5536 5535 5535 5534 5533 5533 5532 5531 5530 5529 5528 5527 5526 5524 5523 5522 5521 5519 5517 5516 5514 5514 5513 5513 5512 5511 5511 5509 5508 5506 5505 5504 5503 5502 5501 5501 5501 5500 5497 5495 5491 5488 5486 5484 5482 5480 5478 5477 5475 5474 5472 5471 5469 5467 5466 5465 5463 5461 5459 5457 5455 5453 5451 5449 5447 5445 5443 5440 5438 5436 5434 5432 5431 5430
5537 5537 5537 5537 5536 5536 5536 5536 5535 5535 5534 5533 5533 5532 5532 5531 5530 5529 5528 5527 5526 5525 5524 5523 5522 5520 5519 5518 5517 5515 5514 5512 5510 5510 5509 5508 5508 5507 5507 5505 5504 5502 5501 5500 5499 5498 5497 5496 5495 5494 5493 5492 5489 5485 5482 5480 5478 5477 5475 5473 5472 5470 5468 5467 5465 5463 5462 5460 5458 5456 5454 5452 5451 5448 5446 5444 5442 5440 5437 5435 5432 5430 5427 5426 5424 5423
5533 5533 5533 5533 5533 5533 5533 5532 5532 5531 5531 5530 5529 5529 5528 5527 5526 5525 5524 5523 5522 5521 5520 5519 5517 5517 5515 5514 5513 5512 5510 5508 5507 5506 5505 5504 5504 5503 5502 5502 5500 5499 5497 5496 5495 5494 5493 5492 5491 5490 5488 5487 5485 5483 5480 5477 5475 5473 5471 5469 5467 5466 5464 5462 5461 5459 5457 5456 5454 5452 5450 5448 5446 5444 5442 5439 5437 5434 5432 5429 5427 5424 5422 5419 5418 5416
5530 5530 5530 5530 5530 5530 5529 5529 5528 5528 5527 5527 5526 5525 5524 5523 5522 5521 5520 5519 5518 5517 5516 5515 5514 5512 5512 5510 5509 5508 5507 5505 5503 5502 5501 5501 5500 5499 5499 5498 5497 5495 5493 5492 5491 5490 5489 5487 5487 5485 5484 5482 5481 5479 5477 5474 5472 5469 5467 5465 5463 5462 5459 5458 5456 5454 5453 5451 5449 5447 5446 5443 5441 5439 5437 5435 5432 5430 5427 5424 5422 5419 5417 5414 5412 5410
5527 5527 5527 5527 5527 5527 5526 5526 5525 5525 5524 5523 5522 5522 5521 5520 5518 5517 5517 5515 5514 5513 5512 5512 5510 5509 5508 5507 5505 5504 5503 5501 5500 5499 5498 5497 5496 5496 5495 5494 5492 5491 5490 5488 5487 5486 5485 5483 5482 5481 5480 5478 5476 5475 5473 5471 5468 5466 5463 5461 5459 5457 5455 5453 5452 5450 5448 5446 5445 5443 5441 5438 5436 5434 5432 5430 5427 5425 5422 5420 5417 5415 5412 5410 5407 5405
5523 5523 5523 5523 5523 5523 5523 5522 5522 5521 5521 5520 5519 5518 5517 5516 5515 5514 5512 5512 5510 5510 5509 5508 5507 5506 5504 5503 5502 5501 5499 5498 5497 5496 5494 5493 5492 5492 5491 5490 5489 5487 5486 5485 5483 5482 5481 5479 5478 5477 5475 5474 5472 5470 5468 5466 5464 5462 5460 5458 5456 5453 5451 5449 5447 5445 5443 5441 5439 5437 5436 5433 5431 5429 5427 5425 5422 5420 5418 5415 5413 5410 5407 5405 5403 5400
5520 5520 5520 5520 5520 5520 5520 5519 5519 5518 5517 5516 5515 5514 5513 5512 5511 5510 5508 5507 5506 5506 5505 5504 5503 5502 5501 5500 5499 5497 5496 5495 5494 5492 5491 5490 5489 5488 5487 5486 5485 5484 5482 5481 5479 5478 5477 5475 5473 5472 5471 5469 5467 5466 5464 5461 5459 5457 5455 5453 5452 5449 5447 5444 5442 5439 5438 5436 5434 5432 5430 5428 5426 5424 5422 5420 5418 5416 5413 5411 5408 5406 5403 5400 5398 5396
5518 5517 5517 5517 5517 5517 5517 5516 5515 5514 5513 5512 5512 5511 5509 5508 5507 5506 5504 5503 5502 5502 5501 5501 5500 5499 5498 5497 5495 5494 5493 5492 5491 5489 5488 5487 5485 5484 5483 5482 5482 5480 5479 5477 5476 5474 5472 5471 5469 5467 5466 5464 5462 5461 5459 5457 5454 5452 5450 5449 5447 5445 5443 5440 5437 5434 5432 5431 5429 5427 5425 5423 5421 5419 5417 5415 5413 5411 5408 5406 5404 5401 5398 5396 5393 5391
5515 5515 5515 5514 5514 5513 5513 5512 5512 5511 5510 5509 5508 5507 5506 5505 5503 5502 5501 5500 5499 5499 5498 5498 5497 5496 5495 5493 5492 5491 5489 5488 5487 5486 5484 5483 5482 5481 5480 5479 5478 5477 5475 5474 5472 5470 5469 5467 5465 5463 5461 5459 5457 5456 5454 5451 5449 5446 5444 5443 5442 5440 5438 5436 5432 5430 5427 5426 5424 5422 5420 5418 5416 5414 5412 5410 5408 5406 5403 5401 5398 5396 5393 5390 5387 5386
5512 5512 5512 5512 5511 5510 5510 5509 5508 5507 5507 5506 5505 5504 5502 5501 5500 5499 5498 5497 5496 5496 5495 5495 5494 5493 5492 5490 5489 5487 5486 5485 5484 5482 5481 5480 5479 5477 5476 5475 5474 5473 5471 5470 5468 5467 5465 5462 5460 5458 5456 5454 5452 5450 5448 5446 5444 5441 5439 5437 5436 5435 5433 5431 5428 5425 5422 5420 5418 5417 5415 5413 5411 5409 5407 5405 5403 5401 5398 5396 5393 5390 5387 5384 5382 5379
5510 5510 5509 5508 5508 5507 5507 5506 5505 5504 5504 5503 5502 5501 5499 5498 5497 5496 5495 5495 5494 5493 5492 5492 5491 5490 5489 5487 5486 5484 5483 5482 5481 5479 5478 5477 5475 5474 5473 5472 5470 5469 5467 5466 5464 5462 5461 5458 5456 5453 5451 5449 5447 5445 5443 5441 5439 5436 5434 5432 5430 5429 5427 5426 5424 5421 5418 5416 5413 5411 5409 5407 5406 5404 5402 5401 5398 5396 5393 5391 5388 5385 5382 5379 5376 5373
5507 5507 5506 5506 5505 5504 5503 5503 5502 5501 5501 5500 5499 5497 5497 5496 5495 5494 5493 5492 5492 5491 5490 5489 5488 5487 5486 5485 5483 5482 5480 5478 5477 5476 5474 5473 5472 5470 5469 5467 5466 5464 5463 5462 5460 5458 5456 5454 5452 5449 5446 5444 5442 5440 5437 5436 5433 5432 5429 5427 5425 5424 5422 5420 5419 5417 5414 5412 5409 5407 5404 5402 5400 5399 5397 5396 5393 5391 5388 5385 5382 5379 5377 5373 5370 5367
5504 5504 5503 5502 5502 5501 5501 5500 5499 5498 5497 5497 5496 5495 5494 5493 5492 5491 5491 5490 5489 5488 5487 5486 5486 5484 5483 5482 5480 5479 5477 5476 5474 5472 5471 5469 5468 5467 5465 5463 5462 5460 5459 5457 5455 5453 5452 5449 5447 5444 5442 5439 5437 5435 5432 5430 5428 5427 5425 5422 5421 5419 5417 5415 5413 5411 5409 5407 5404 5402 5399 5397 5395 5393 5392 5391 5389 5386 5384 5381 5377 5374 5371 5368 5365 5362
5501 5501 5500 5500 5499 5498 5498 5497 5496 5495 5495 5494 5493 5492 5492 5491 5490 5489 5488 5487 5487 5486 5485 5484 5483 5482 5480 5479 5477 5476 5475 5473 5471 5469 5467 5466 5464 5463 5461 5460 5458 5456 5454 5452 5451 5449 5447 5445 5442 5440 5437 5435 5432 5430 5427 5425 5423 5421 5420 5418 5417 5415 5412 5410 5408 5406 5404 5402 5399 5397 5394 5392 5390 5388 5387 5386 5384 5382 5379 5376 5373 5369 5366 5363 5360 5357
5498 5498 5498 5497 5497 5496 5495 5494 5493 5493 5492 5492 5491 5490 5489 5488 5488 5487 5486 5485 5484 5483 5482 5481 5480 5479 5477 5476 5475 5473 5472 5470 5469 5467 5465 5463 5461 5459 5457 5456 5454 5452 5451 5449 5447 5444 5442 5440 5437 5435 5433 5430 5428 5426 5423 5421 5419 5417 5415 5414 5412 5410 5408 5406 5404 5401 5398 5396 5394 5391 5389 5387 5385 5383 5381 5380 5379 5377 5375 5372 5368 5364 5361 5357 5354 5351
5496 5495 5495 5494 5493 5493 5492 5492 5491 5491 5490 5490 5489 5488 5487 5486 5485 5485 5484 5483 5482 5481 5480 5479 5477 5476 5475 5473 5472 5471 5469 5467 5466 5464 5462 5460 5458 5456 5454 5452 5451 5449 5447 5445 5443 5441 5438 5436 5433 5431 5428 5426 5423 5421 5419 5417 5414 5412 5410 5409 5407 5406 5404 5402 5399 5397 5394 5392 5389 5387 5384 5382 5379 5377 5376 5375 5374 5372 5371 5367 5364 5360 5356 5352 5348 5345
5493 5492 5492 5492 5491 5490 5490 5489 5489 5488 5488 5487 5487 5486 5485 5484 5483 5482 5481 5480 5479 5478 5477 5476 5475 5473 5472 5471 5469 5468 5467 5465 5463 5461 5459 5457 5455 5453 5452 5450 5448 5446 5444 5442 5440 5437 5435 5432 5430 5427 5424 5422 5419 5417 5415 5413 5411 5408 5406 5405 5403 5401 5399 5397 5395 5393 5390 5387 5385 5382 5380 5377 5374 5372 5370 5368 5367 5367 5366 5363 5360 5356 5351 5347 5343 5340
5490 5490 5489 5489 5488 5488 5488 5487 5487 5486 5486 5485 5484 5483 5482 5481 5480 5480 5479 5478 5477 5476 5475 5474 5472 5471 5470 5468 5467 5465 5463 5462 5460 5458 5456 5454 5452 5451 5449 5447 5445 5443 5441 5439 5437 5434 5432 5429 5427 5423 5420 5417 5415 5413 5410 5408 5407 5405 5403 5401 5399 5397 5395 5393 5391 5389 5386 5383 5381 5378 5375 5372 5370 5367 5365 5363 5361 5360 5360 5358 5355 5351 5347 5342 5337 5334
5487 5487 5487 5487 5487 5486 5486 5485 5485 5484 5483 5482 5482 5481 5480 5479 5478 5477 5477 5476 5475 5474 5472 5472 5470 5469 5467 5465 5464 5462 5460 5458 5457 5455 5453 5451 5449 5447 5446 5444 5442 5440 5438 5436 5434 5432 5430 5427 5425 5421 5417 5414 5411 5409 5406 5404 5402 5401 5399 5397 5395 5393 5391 5389 5387 5385 5382 5380 5377 5374 5371 5368 5366 5363 5360 5357 5355 5354 5353 5352 5350 5346 5342 5337 5332 5329